Stündliche Wetter Jubail

Heute, 6 März, Samstag

Zeit Temperatur Niederschläge Wind Luftdruck Luftfeuchtigkeit
00:00 +18°C° 0 mm 8 m/S 765 mmHg 58%
01:00 +18°C° 0 mm 8 m/S 765 mmHg 57%
02:00 +18°C° 0 mm 9 m/S 764 mmHg 56%
03:00 +18°C° 0 mm 9 m/S 764 mmHg 55%
04:00 +17°C° 0 mm 9 m/S 764 mmHg 55%
05:00 +17°C° 0 mm 9 m/S 765 mmHg 56%
06:00 +17°C° 0 mm 9 m/S 765 mmHg 56%
07:00 +18°C° 0 mm 9 m/S 766 mmHg 52%
08:00 +19°C° 0 mm 9 m/S 766 mmHg 48%
09:00 +21°C° 0 mm 9 m/S 766 mmHg 44%
10:00 +22°C° 0 mm 9 m/S 766 mmHg 39%
11:00 +22°C° 0 mm 9 m/S 766 mmHg 34%
12:00 +23°C° 0 mm 9 m/S 765 mmHg 29%
13:00 +23°C° 0 mm 9 m/S 765 mmHg 28%
14:00 +23°C° 0 mm 9 m/S 764 mmHg 27%
15:00 +22°C° 0 mm 9 m/S 763 mmHg 26%
16:00 +22°C° 0 mm 8 m/S 763 mmHg 29%
17:00 +21°C° 0 mm 7 m/S 764 mmHg 33%
18:00 +20°C° 0 mm 7 m/S 764 mmHg 36%
19:00 +20°C° 0 mm 6 m/S 764 mmHg 38%
20:00 +19°C° 0 mm 5 m/S 764 mmHg 41%
21:00 +19°C° 0 mm 5 m/S 764 mmHg 43%
22:00 +17°C° 0 mm 5 m/S 764 mmHg 40%
23:00 +17°C° 0 mm 5 m/S 764 mmHg 37%

Morgen, 7 März, Sonntag

Zeit Temperatur Niederschläge Wind Luftdruck Luftfeuchtigkeit
00:00 +17°C° 0 mm 6 m/S 764 mmHg 33%
01:00 +16°C° 0 mm 6 m/S 763 mmHg 32%
02:00 +16°C° 0 mm 7 m/S 763 mmHg 31%
03:00 +16°C° 0 mm 7 m/S 762 mmHg 30%
04:00 +16°C° 0 mm 7 m/S 763 mmHg 31%
05:00 +15°C° 0 mm 7 m/S 763 mmHg 33%
06:00 +15°C° 0 mm 7 m/S 763 mmHg 35%
07:00 +17°C° 0 mm 7 m/S 763 mmHg 33%
08:00 +18°C° 0 mm 7 m/S 763 mmHg 31%
09:00 +21°C° 0 mm 7 m/S 764 mmHg 29%
10:00 +22°C° 0 mm 8 m/S 763 mmHg 27%
11:00 +23°C° 0 mm 8 m/S 763 mmHg 25%
12:00 +24°C° 0 mm 8 m/S 762 mmHg 22%
13:00 +24°C° 0 mm 8 m/S 762 mmHg 22%
14:00 +24°C° 0 mm 7 m/S 761 mmHg 23%
15:00 +24°C° 0 mm 7 m/S 760 mmHg 23%
16:00 +22°C° 0 mm 6 m/S 760 mmHg 28%
17:00 +21°C° 0 mm 5 m/S 760 mmHg 32%
18:00 +20°C° 0 mm 4 m/S 761 mmHg 37%
19:00 +19°C° 0 mm 3 m/S 761 mmHg 39%
20:00 +19°C° 0 mm 3 m/S 761 mmHg 41%
21:00 +18°C° 0 mm 2 m/S 761 mmHg 43%
22:00 +18°C° 0 mm 2 m/S 761 mmHg 40%
23:00 +18°C° 0 mm 2 m/S 761 mmHg 37%

übermorgen, 8 März, Montag

Zeit Temperatur Niederschläge Wind Luftdruck Luftfeuchtigkeit
00:00 +18°C° 0 mm 3 m/S 761 mmHg 34%
01:00 +18°C° 0 mm 2 m/S 760 mmHg 33%
02:00 +17°C° 0 mm 2 m/S 760 mmHg 32%
03:00 +17°C° 0 mm 2 m/S 760 mmHg 30%
04:00 +17°C° 0 mm 2 m/S 760 mmHg 30%
05:00 +16°C° 0 mm 2 m/S 760 mmHg 30%
06:00 +16°C° 0 mm 2 m/S 760 mmHg 30%
07:00 +18°C° 0 mm 2 m/S 761 mmHg 26%
08:00 +21°C° 0 mm 2 m/S 761 mmHg 21%
09:00 +24°C° 0 mm 2 m/S 761 mmHg 17%
10:00 +25°C° 0 mm 2 m/S 761 mmHg 15%
11:00 +27°C° 0 mm 1 m/S 760 mmHg 13%
12:00 +28°C° 0 mm 1 m/S 760 mmHg 11%
13:00 +28°C° 0 mm 2 m/S 759 mmHg 12%
14:00 +29°C° 0 mm 3 m/S 758 mmHg 13%
15:00 +29°C° 0 mm 4 m/S 757 mmHg 13%
16:00 +28°C° 0 mm 4 m/S 757 mmHg 18%
17:00 +26°C° 0 mm 5 m/S 757 mmHg 22%
18:00 +23°C° 0 mm 6 m/S 757 mmHg 26%
19:00 +23°C° 0 mm 6 m/S 758 mmHg 28%
20:00 +23°C° 0 mm 5 m/S 758 mmHg 30%
21:00 +22°C° 0 mm 5 m/S 758 mmHg 32%
22:00 +22°C° 0 mm 5 m/S 758 mmHg 34%
23:00 +22°C° 0 mm 5 m/S 757 mmHg 36%

9 März, Dienstag

Zeit Temperatur Niederschläge Wind Luftdruck Luftfeuchtigkeit
00:00 +21°C° 0 mm 5 m/S 757 mmHg 37%
01:00 +21°C° 0 mm 5 m/S 757 mmHg 40%
02:00 +21°C° 0 mm 5 m/S 757 mmHg 42%
03:00 +20°C° 0 mm 5 m/S 756 mmHg 44%
04:00 +20°C° 0 mm 4 m/S 757 mmHg 39%
05:00 +20°C° 0 mm 3 m/S 757 mmHg 33%
06:00 +20°C° 0 mm 3 m/S 758 mmHg 28%
07:00 +22°C° 0 mm 3 m/S 759 mmHg 29%
08:00 +23°C° 0 mm 4 m/S 759 mmHg 30%
09:00 +26°C° 0 mm 4 m/S 760 mmHg 30%
10:00 +27°C° 0 mm 5 m/S 760 mmHg 29%
11:00 +28°C° 0 mm 6 m/S 760 mmHg 28%
12:00 +28°C° 0 mm 7 m/S 760 mmHg 26%
13:00 +28°C° 0 mm 7 m/S 759 mmHg 26%
14:00 +27°C° 0 mm 7 m/S 759 mmHg 26%
15:00 +27°C° 0 mm 6 m/S 759 mmHg 26%
16:00 +26°C° 0 mm 6 m/S 759 mmHg 32%
17:00 +23°C° 0 mm 5 m/S 760 mmHg 37%
18:00 +22°C° 0 mm 4 m/S 760 mmHg 43%
19:00 +22°C° 0 mm 4 m/S 761 mmHg 44%
20:00 +21°C° 0 mm 4 m/S 761 mmHg 45%
21:00 +21°C° 0 mm 4 m/S 762 mmHg 46%
22:00 +21°C° 0 mm 4 m/S 761 mmHg 45%
23:00 +21°C° 0 mm 4 m/S 761 mmHg 43%

10 März, Mittwoch

Zeit Temperatur Niederschläge Wind Luftdruck Luftfeuchtigkeit
00:00 +21°C° 0 mm 5 m/S 761 mmHg 41%
01:00 +21°C° 0 mm 5 m/S 761 mmHg 43%
02:00 +20°C° 0 mm 5 m/S 761 mmHg 44%
03:00 +20°C° 0 mm 5 m/S 761 mmHg 45%
04:00 +20°C° 0 mm 5 m/S 761 mmHg 50%
05:00 +19°C° 0 mm 5 m/S 761 mmHg 55%
06:00 +19°C° 0 mm 4 m/S 761 mmHg 59%
07:00 +21°C° 0 mm 4 m/S 762 mmHg 50%
08:00 +23°C° 0 mm 4 m/S 763 mmHg 40%
09:00 +25°C° 0 mm 4 m/S 763 mmHg 31%
10:00 +26°C° 0 mm 4 m/S 763 mmHg 27%
11:00 +27°C° 0 mm 4 m/S 762 mmHg 24%
12:00 +28°C° 0 mm 5 m/S 762 mmHg 20%
13:00 +28°C° 0 mm 5 m/S 761 mmHg 20%
14:00 +28°C° 0 mm 5 m/S 761 mmHg 21%
15:00 +28°C° 0 mm 5 m/S 760 mmHg 21%
16:00 +26°C° 0 mm 5 m/S 760 mmHg 26%
17:00 +25°C° 0 mm 4 m/S 761 mmHg 31%
18:00 +23°C° 0 mm 4 m/S 761 mmHg 37%
19:00 +22°C° 0 mm 3 m/S 761 mmHg 38%
20:00 +22°C° 0 mm 3 m/S 761 mmHg 40%
21:00 +21°C° 0 mm 2 m/S 762 mmHg 42%
22:00 +21°C° 0 mm 2 m/S 761 mmHg 41%
23:00 +21°C° 0 mm 1 m/S 761 mmHg 41%

11 März, Donnerstag

Zeit Temperatur Niederschläge Wind Luftdruck Luftfeuchtigkeit
00:00 +18°C° 0 mm 0 m/S 761 mmHg 40%
01:00 +18°C° 0 mm 0 m/S 760 mmHg 39%
02:00 +18°C° 0 mm 0 m/S 759 mmHg 37%
03:00 +18°C° 0 mm 0 m/S 759 mmHg 36%
04:00 +20°C° 0 mm 1 m/S 759 mmHg 34%
05:00 +19°C° 0 mm 2 m/S 758 mmHg 33%
06:00 +20°C° 0 mm 3 m/S 758 mmHg 31%
07:00 +22°C° 0 mm 3 m/S 759 mmHg 28%
08:00 +25°C° 0 mm 3 m/S 759 mmHg 25%
09:00 +26°C° 0 mm 3 m/S 759 mmHg 22%
10:00 +28°C° 0 mm 4 m/S 758 mmHg 19%
11:00 +30°C° 0 mm 5 m/S 758 mmHg 16%
12:00 +33°C° 0 mm 5 m/S 757 mmHg 14%
13:00 +34°C° 0 mm 6 m/S 756 mmHg 12%
14:00 +35°C° 0 mm 6 m/S 755 mmHg 11%
15:00 +38°C° 0 mm 6 m/S 755 mmHg 10%
16:00 +36°C° 0 mm 7 m/S 754 mmHg 11%
17:00 +34°C° 0 mm 7 m/S 754 mmHg 12%
18:00 +33°C° 0 mm 8 m/S 753 mmHg 13%
19:00 +33°C° 0 mm 8 m/S 753 mmHg 13%
20:00 +33°C° 0 mm 8 m/S 753 mmHg 13%
21:00 +32°C° 0 mm 8 m/S 753 mmHg 13%
22:00 +32°C° 0 mm 8 m/S 753 mmHg 13%
23:00 +32°C° 0 mm 8 m/S 752 mmHg 14%
Mehr zeigen

Wir brauchen deine Erlaubnis

Meteoprog und unser Service Anbieter werden persönliche Daten aufbewahren, so wie Cookies, Geräte Bezeichnung oder ähnliche Technologien von deinem Gerät und Prozess, so wie Persönliche Daten Inhalte und Werbungen, genauso wie social Media und den Verkehr zu analysieren.

  • Aufbewahrung und/oder Zugang zu deiner Geräte Informationen.

    Cookies, Geräte Bezeichnung oder andere Informationen, können aufbewahrt oder Zugang zu deinem Gerät erhalten, für den Grund, der oben angegeben wird.

  • Personalisierte Werbung und Inhalte, Messungen, Einblick in das Publikum und Produkt Entwicklung.

    Werbungen und Inhalte können personalisiert werden, basierend auf ein Profil. Mehr Daten können besser personalisierte Werbungen und Inhalte hinzufügen. Werbung und Inhalte können gezeigt und gemessen werden. Einblicke über das Publikum, welche die Werbung gesehen haben und den Inhalt, können abgeleitet werden. So wie Daten können genutzt werden, um es zu verbessern oder die Benutzer Erfahrung zu verbessern das System und die Software.

Wenn du “Ich stimme zu” klickst, erlaubst du uns, die Cookies zu benutzen die Geräte Bezeichnung, den Web oder ähnliche Technologien zu benutzen. Deine Settings, können in deinem Gerät bei deinem Browser geändert werden.

Für den bestimmten Zweck, berechtigten Interessen beruhen darauf, mehr als auf den Inhalt. Du kannst mehr darüber in unseren Privaten und Cookie Politik lesen.